Location: Newark
(39.5667°N, 8.9833°E)
Time: 18:51:07
(UTC+00:00)

Transit 2A - Pass Details

Date: 30 October 2019
Orbit: 601 x 957 km, 66.7° (Epoch: 11 November)

Event Time Altitude Azimuth Distance (km) Brightness Sun altitude
Rises 01:41:46 0° 327° (NNW) 2,865 - -47.4°
Reaches altitude 10° 01:44:02 10° 324° (NW) 1,949 - -47.0°
Maximum altitude 01:48:18 60° 245° (WSW) 697 - -46.3°
Drops below altitude 10° 01:52:39 10° 165° (SSE) 1,984 - -45.5°
Sets 01:54:59 0° 162° (SSE) 2,920 - -45.1°
